Location: Albany
(35.0000°S, 118.0000°E)
Time: 17:46:37
(UTC-05:00)

CZ-4B R/B - Visible Passes

Search period start: 28 November 2014 00:00
Search period end: 08 December 2014 00:00
Orbit: 492 x 673 km, 97.6° (Epoch: 28 November)

Date Brightness Start Highest point End Pass type
(mag) Time Alt. Az. Time Alt. Az. Time Alt. Az.
28 Nov 3.2 14:28:15 10° NNE 14:32:41 84° ESE 14:37:20 10° S visible
29 Nov 3.1 14:34:05 10° N 14:38:32 84° WNW 14:43:13 10° SSW visible
30 Nov 6.4 13:09:09 10° ESE 13:09:45 10° ESE 13:10:22 10° SE visible
30 Nov 3.1 14:39:57 10° N 14:44:24 72° W 14:49:04 10° SSW visible
01 Dec 6.2 13:13:46 10° E 13:15:31 12° ESE 13:17:18 10° SE visible
01 Dec 3.2 14:45:49 10° N 14:50:15 61° W 14:54:54 10° SSW visible
02 Dec 6.1 13:18:55 10° E 13:21:17 14° ESE 13:23:41 10° SE visible
02 Dec 3.4 14:51:43 10° N 14:56:07 52° W 15:00:41 10° SSW visible
03 Dec 6.0 13:24:14 10° ENE 13:27:03 16° ESE 13:29:54 10° SSE visible
03 Dec 3.6 14:57:39 10° N 15:01:58 44° W 15:06:27 10° SSW visible
04 Dec 5.9 13:29:38 10° ENE 13:32:48 19° ESE 13:36:02 10° SSE visible
04 Dec 3.8 15:03:35 10° NNW 15:07:49 38° W 15:12:11 10° SSW visible
05 Dec 5.7 13:35:05 10° ENE 13:38:34 22° ESE 13:42:05 10° SSE visible
05 Dec 4.0 15:09:33 10° NNW 15:13:39 33° W 15:17:53 10° SSW visible
06 Dec 5.5 13:40:35 10° ENE 13:44:19 25° ESE 13:48:06 10° SSE visible
06 Dec 4.2 15:15:34 10° NNW 15:19:30 28° W 15:23:32 10° SW visible
07 Dec 5.2 13:46:08 10° NE 13:50:04 28° ESE 13:54:03 10° SSE visible
